Nabq, Egypt

2:10 PM EET on February 23, 2017 (GMT +0200)
Sharm El Sheikh International

Weather History for HESH - May, 2013

Change the Weather History Date:

Wednesday, May 15, 2013

  Actual Average Record
Temperature  
Mean Temperature 82 °F -  
Max Temperature 91 °F - - ()
Min Temperature 73 °F - - ()
Cooling Degree Days 17    
Growing Degree Days 32 (Base 50)    
Moisture  
Dew Point 47 °F    
Average Humidity 31    
Maximum Humidity 53    
Minimum Humidity 11    
Precipitation  
Precipitation 0.00 in - - ()
Sea Level Pressure  
Sea Level Pressure 29.77 in    
Wind  
Wind Speed 9 mph ()    
Max Wind Speed 20 mph    
Max Gust Speed -    
Visibility 4.6 miles    
Events      
T = Trace of Precipitation, MM = Missing Value Source: Averaged Metar Reports

Daily Weather History Graph

Daily Weather History Graph

Search for Another Location

Airport or City:

Trip Planner

Search our weather history database for the weather conditions in past years. The results will help you decide how hot, cold, wet, or windy it might be!

Date:

Astronomy

May. 15, 2013 Rise Set
Actual Time 4:52 AM EET 6:25 PM EET
Civil Twilight 4:27 AM EET 6:50 PM EET
Nautical Twilight 3:56 AM EET 7:21 PM EET
Astronomical Twilight 3:25 AM EET 7:53 PM EET
Moon 9:06 AM EET (5/15) 10:40 PM EET (5/15)
Length of Visible Light 14h 23m
Length of Day
13h 32m
Waxing Crescent, 24% of the Moon is Illuminated
May 15
Waxing Crescent
May 18
First Quarter
May 25
Full
May 31
Last Quarter
Jun 8
New

Hourly Weather History & Observations

Time (EET) Temp. Heat Index Dew Point Humidity Pressure Visibility Wind Dir Wind Speed Gust Speed Precip Events Conditions
12:00 AM 84.2 °F - 24.8 °F 11% 29.71 in - WNW 10.4 mph - N/A   Clear
1:00 AM 78.8 °F - 44.6 °F 30% 29.71 in - North 6.9 mph - N/A   Clear
2:00 AM 77.0 °F - 51.8 °F 41% 29.71 in - North 11.5 mph - N/A   Clear
3:00 AM 75.2 °F - 51.8 °F 44% 29.71 in - North 11.5 mph - N/A   Clear
4:00 AM 75.2 °F - 55.4 °F 50% 29.74 in - North 13.8 mph - N/A   Clear
5:00 AM 73.4 °F - 55.4 °F 53% 29.74 in - North 10.4 mph - N/A   Clear
6:00 AM 75.2 °F - 53.6 °F 47% 29.77 in 3.7 mi North 15.0 mph - N/A   Unknown
7:00 AM 78.8 °F - 50.0 °F 36% 29.77 in 3.7 mi NNE 19.6 mph - N/A   Unknown
8:00 AM 80.6 °F - 51.8 °F 37% 29.77 in 3.7 mi NNE 15.0 mph - N/A   Unknown
9:00 AM 82.4 °F 81.4 °F 53.6 °F 37% 29.80 in 3.7 mi NNE 13.8 mph - N/A   Unknown
10:00 AM 84.2 °F - 51.8 °F 33% 29.80 in 3.7 mi NNE 12.7 mph - N/A   Unknown
11:00 AM 84.2 °F - 50.0 °F 30% 29.80 in 3.7 mi NE 12.7 mph - N/A   Partly Cloudy
12:00 PM 87.8 °F - 50.0 °F 27% 29.80 in 3.7 mi ENE 11.5 mph - N/A   Partly Cloudy
1:00 PM 89.6 °F - 46.4 °F 22% 29.77 in 6.2 mi NE 8.1 mph - N/A   Partly Cloudy
2:00 PM 91.4 °F - 42.8 °F 18% 29.77 in 6.2 mi ENE 6.9 mph - N/A   Partly Cloudy
3:00 PM 91.4 °F - 42.8 °F 18% 29.74 in 6.2 mi NE 6.9 mph - N/A   Partly Cloudy
4:00 PM 91.4 °F - 41.0 °F 17% 29.74 in 6.2 mi ENE 5.8 mph - N/A   Partly Cloudy
5:00 PM 89.6 °F - 39.2 °F 17% 29.74 in - East 4.6 mph - N/A   Clear
6:00 PM 86.0 °F - 41.0 °F 20% 29.74 in - Variable 3.5 mph - N/A   Clear
7:00 PM 80.6 °F - 44.6 °F 28% 29.77 in - Variable 2.3 mph - N/A   Clear
8:00 PM 78.8 °F - 39.2 °F 24% 29.80 in - North 4.6 mph - N/A   Clear
9:00 PM 78.8 °F - 46.4 °F 32% 29.83 in - North 4.6 mph - N/A   Clear
10:00 PM 78.8 °F - 51.8 °F 39% 29.83 in - North 10.4 mph - N/A   Clear
11:00 PM 77.0 °F - 53.6 °F 44% 29.83 in - North 8.1 mph - N/A   Clear